Location: Newark
(39.2833°N, 16.3333°E)
Time: 20:06:54
(UTC+00:00)

LightSail 2 - Pass Details

Date: 17 October 2019
Orbit: 700 x 727 km, 24.0° (Epoch: 17 November)

Event Time Altitude Azimuth Distance (km) Brightness Sun altitude
Rises 16:58:43 0° 237° (WSW) 3,078 9.6 -9.5°
Reaches altitude 10° 17:02:15 10° 212° (SSW) 2,166 8.2 -10.2°
Maximum altitude 17:04:51 14° 181° (S) 1,908 7.4 -10.7°
Drops below altitude 10° 17:07:29 10° 150° (SSE) 2,176 7.4 -11.2°
Enters shadow 17:09:32 - 134° (SE) 2,659 7.7 -11.6°
